When you browse on this site, cookies collect data to enhance your experience and personalize the content and advertising you see.
Visit our Privacy Policy to learn more. By continuing to use the site, you agree to this use of cookies and data.
  • In Romania
  • List of Countries
  • For 7 days
  • Water Temperature
  • Satellite Maps
  • Weather Map
  • Weather Widgets
  • user-avatar
    Login

    Hourly Weather Baden-Baden

    Today, 18 March, Monday

    Time Temperature Precipitation Wind Pressure Humidity
    00:00 0°C° 0 mm 4 mps 730 mmHg 86%
    01:00 +1°C° 0 mm 3 mps 730 mmHg 88%
    02:00 +1°C° 0 mm 3 mps 730 mmHg 89%
    03:00 +1°C° 0 mm 3 mps 730 mmHg 90%
    04:00 +1°C° 0 mm 3 mps 730 mmHg 91%
    05:00 0°C° 0 mm 3 mps 730 mmHg 91%
    06:00 0°C° 0 mm 3 mps 731 mmHg 91%
    07:00 +1°C° 0 mm 3 mps 731 mmHg 90%
    08:00 +2°C° 0.1 mm 3 mps 731 mmHg 86%
    09:00 +3°C° 0.1 mm 4 mps 732 mmHg 82%
    10:00 +3°C° 0.1 mm 4 mps 732 mmHg 78%
    11:00 +4°C° 0.1 mm 4 mps 732 mmHg 73%
    12:00 +5°C° 0.1 mm 4 mps 732 mmHg 69%
    13:00 +6°C° 0.1 mm 4 mps 733 mmHg 64%
    14:00 +6°C° 0.1 mm 4 mps 733 mmHg 63%
    15:00 +6°C° 0.1 mm 4 mps 733 mmHg 62%
    16:00 +6°C° 0.1 mm 4 mps 733 mmHg 61%
    17:00 +5°C° 0 mm 3 mps 733 mmHg 68%
    18:00 +5°C° 0 mm 2 mps 733 mmHg 74%
    19:00 +3°C° 0 mm 2 mps 733 mmHg 80%
    20:00 +4°C° 0 mm 1 mps 734 mmHg 83%
    21:00 +3°C° 0 mm 1 mps 734 mmHg 86%
    22:00 +3°C° 0 mm 1 mps 735 mmHg 88%
    23:00 +3°C° 0 mm 1 mps 735 mmHg 89%

    Tomorrow, 19 March, Tuesday

    Time Temperature Precipitation Wind Pressure Humidity
    00:00 +2°C° 0 mm 1 mps 735 mmHg 90%
    01:00 +2°C° 0 mm 1 mps 735 mmHg 91%
    02:00 +2°C° 0 mm 1 mps 735 mmHg 91%
    03:00 +2°C° 0 mm 1 mps 735 mmHg 92%
    04:00 +1°C° 0 mm 1 mps 736 mmHg 92%
    05:00 +1°C° 0 mm 1 mps 736 mmHg 92%
    06:00 0°C° 0 mm 0 mps 736 mmHg 92%
    07:00 0°C° 0 mm 0 mps 737 mmHg 92%
    08:00 +2°C° 0 mm 0 mps 737 mmHg 85%
    09:00 +4°C° 0 mm 0 mps 738 mmHg 77%
    10:00 +7°C° 0 mm 1 mps 738 mmHg 70%
    11:00 +8°C° 0 mm 1 mps 738 mmHg 65%
    12:00 +9°C° 0 mm 1 mps 738 mmHg 61%
    13:00 +8°C° 0 mm 2 mps 738 mmHg 57%
    14:00 +8°C° 0 mm 2 mps 738 mmHg 55%
    15:00 +9°C° 0 mm 2 mps 738 mmHg 53%
    16:00 +9°C° 0 mm 2 mps 738 mmHg 50%
    17:00 +7°C° 0 mm 2 mps 738 mmHg 56%
    18:00 +6°C° 0 mm 1 mps 739 mmHg 61%
    19:00 +5°C° 0 mm 1 mps 739 mmHg 67%
    20:00 +4°C° 0 mm 1 mps 739 mmHg 67%
    21:00 +4°C° 0 mm 1 mps 740 mmHg 68%
    22:00 +3°C° 0 mm 1 mps 740 mmHg 69%
    23:00 +3°C° 0 mm 1 mps 741 mmHg 70%

    Day after tomorrow, 20 March, Wednesday

    Time Temperature Precipitation Wind Pressure Humidity
    00:00 +2°C° 0 mm 1 mps 741 mmHg 72%
    01:00 +2°C° 0 mm 1 mps 741 mmHg 74%
    02:00 +2°C° 0 mm 1 mps 741 mmHg 75%
    03:00 +2°C° 0 mm 1 mps 741 mmHg 76%
    04:00 +2°C° 0 mm 1 mps 741 mmHg 78%
    05:00 +1°C° 0 mm 1 mps 741 mmHg 78%
    06:00 +1°C° 0 mm 1 mps 741 mmHg 78%
    07:00 +1°C° 0 mm 1 mps 742 mmHg 78%
    08:00 +4°C° 0 mm 1 mps 742 mmHg 69%
    09:00 +6°C° 0 mm 1 mps 742 mmHg 60%
    10:00 +7°C° 0 mm 2 mps 743 mmHg 52%
    11:00 +8°C° 0 mm 2 mps 742 mmHg 48%
    12:00 +9°C° 0 mm 3 mps 742 mmHg 45%
    13:00 +10°C° 0 mm 3 mps 742 mmHg 42%
    14:00 +10°C° 0 mm 3 mps 742 mmHg 43%
    15:00 +10°C° 0 mm 3 mps 742 mmHg 44%
    16:00 +10°C° 0 mm 3 mps 741 mmHg 45%
    17:00 +9°C° 0 mm 3 mps 742 mmHg 52%
    18:00 +7°C° 0 mm 2 mps 742 mmHg 59%
    19:00 +5°C° 0 mm 2 mps 742 mmHg 67%
    20:00 +4°C° 0 mm 2 mps 742 mmHg 69%
    21:00 +4°C° 0 mm 2 mps 742 mmHg 71%
    22:00 +3°C° 0 mm 2 mps 742 mmHg 74%
    23:00 +3°C° 0 mm 2 mps 742 mmHg 74%

    21 March, Thursday

    Time Temperature Precipitation Wind Pressure Humidity
    00:00 +3°C° 0 mm 1 mps 742 mmHg 75%
    01:00 +3°C° 0 mm 1 mps 742 mmHg 76%
    02:00 +3°C° 0 mm 1 mps 742 mmHg 76%
    03:00 +2°C° 0 mm 1 mps 742 mmHg 76%
    04:00 +2°C° 0 mm 1 mps 742 mmHg 76%
    05:00 +2°C° 0 mm 1 mps 742 mmHg 76%
    06:00 +2°C° 0 mm 1 mps 742 mmHg 76%
    07:00 +2°C° 0 mm 1 mps 742 mmHg 76%
    08:00 +3°C° 0 mm 2 mps 742 mmHg 68%
    09:00 +6°C° 0 mm 2 mps 742 mmHg 59%
    10:00 +8°C° 0 mm 2 mps 742 mmHg 51%
    11:00 +10°C° 0 mm 2 mps 742 mmHg 48%
    12:00 +11°C° 0 mm 3 mps 742 mmHg 45%
    13:00 +12°C° 0 mm 3 mps 741 mmHg 42%
    14:00 +13°C° 0 mm 3 mps 741 mmHg 43%
    15:00 +13°C° 0 mm 3 mps 741 mmHg 44%
    16:00 +13°C° 0 mm 3 mps 740 mmHg 45%
    17:00 +12°C° 0 mm 2 mps 740 mmHg 52%
    18:00 +9°C° 0 mm 2 mps 740 mmHg 60%
    19:00 +7°C° 0 mm 2 mps 740 mmHg 68%
    20:00 +7°C° 0 mm 2 mps 740 mmHg 70%
    21:00 +7°C° 0 mm 1 mps 740 mmHg 72%
    22:00 +6°C° 0 mm 1 mps 740 mmHg 74%
    23:00 +6°C° 0 mm 1 mps 740 mmHg 74%

    22 March, Friday

    Time Temperature Precipitation Wind Pressure Humidity
    00:00 +6°C° 0 mm 1 mps 740 mmHg 74%
    01:00 +5°C° 0 mm 1 mps 740 mmHg 74%
    02:00 +5°C° 0 mm 1 mps 740 mmHg 74%
    03:00 +5°C° 0 mm 1 mps 740 mmHg 74%
    04:00 +4°C° 0 mm 1 mps 740 mmHg 74%
    05:00 +4°C° 0 mm 1 mps 740 mmHg 74%
    06:00 +4°C° 0 mm 1 mps 740 mmHg 75%
    07:00 +4°C° 0 mm 1 mps 741 mmHg 75%
    08:00 +7°C° 0 mm 1 mps 741 mmHg 67%
    09:00 +9°C° 0 mm 1 mps 741 mmHg 60%
    10:00 +12°C° 0 mm 1 mps 741 mmHg 52%
    11:00 +13°C° 0 mm 1 mps 741 mmHg 49%
    12:00 +14°C° 0 mm 2 mps 741 mmHg 46%
    13:00 +16°C° 0 mm 2 mps 741 mmHg 43%
    14:00 +16°C° 0 mm 2 mps 740 mmHg 44%
    15:00 +16°C° 0 mm 2 mps 740 mmHg 45%
    16:00 +16°C° 0 mm 2 mps 740 mmHg 46%
    17:00 +14°C° 0 mm 2 mps 740 mmHg 53%
    18:00 +12°C° 0 mm 2 mps 740 mmHg 60%
    19:00 +10°C° 0 mm 1 mps 740 mmHg 67%
    20:00 +10°C° 0 mm 1 mps 740 mmHg 69%
    21:00 +9°C° 0 mm 1 mps 740 mmHg 72%
    22:00 +9°C° 0 mm 1 mps 740 mmHg 74%
    23:00 +8°C° 0 mm 1 mps 740 mmHg 76%

    23 March, Saturday

    Time Temperature Precipitation Wind Pressure Humidity
    00:00 +8°C° 0 mm 1 mps 740 mmHg 78%
    01:00 +8°C° 0 mm 1 mps 740 mmHg 80%
    02:00 +7°C° 0 mm 1 mps 739 mmHg 80%
    03:00 +7°C° 0 mm 1 mps 739 mmHg 80%
    04:00 +7°C° 0 mm 1 mps 739 mmHg 80%
    05:00 +7°C° 0 mm 1 mps 739 mmHg 79%
    06:00 +7°C° 0 mm 1 mps 739 mmHg 78%
    07:00 +6°C° 0 mm 1 mps 739 mmHg 78%
    08:00 +9°C° 0 mm 1 mps 739 mmHg 70%
    09:00 +12°C° 0 mm 1 mps 739 mmHg 62%
    10:00 +13°C° 0 mm 0 mps 739 mmHg 54%
    11:00 +15°C° 0 mm 0 mps 739 mmHg 51%
    12:00 +18°C° 0 mm 1 mps 739 mmHg 47%
    13:00 +19°C° 0 mm 1 mps 739 mmHg 44%
    14:00 +19°C° 0 mm 1 mps 738 mmHg 44%
    15:00 +19°C° 0 mm 1 mps 738 mmHg 45%
    16:00 +19°C° 0 mm 1 mps 737 mmHg 45%
    17:00 +15°C° 0 mm 0 mps 737 mmHg 52%
    18:00 +13°C° 0 mm 0 mps 737 mmHg 59%
    19:00 +11°C° 0 mm 0 mps 737 mmHg 65%
    20:00 +11°C° 0 mm 0 mps 737 mmHg 68%
    21:00 +11°C° 0 mm 1 mps 737 mmHg 70%
    22:00 +11°C° 0 mm 1 mps 738 mmHg 72%
    23:00 +10°C° 0 mm 1 mps 738 mmHg 74%
    Show more